Back to catalog

DMSP 5D-2 F13 DEB

AliveSSO
NORAD 40521·DEBRIS·🇺🇸 United States

Launched Mar 24, 1995 from Vandenberg Space Force Base

Loading…

Next Passes (next 24 hours)

TLE

FreshSource: Space-Track

Epoch: Sep 14, 2026, 11:51 UTC

1 40521U 95015DH  26257.49387380  .00007705  00000-0  14341-2 0  9990
2 40521  98.5851 347.3779 0022295 181.2401 178.8749 14.65225509601344

Track DMSP 5D-2 F13 DEB in real time with AllMySat

Download on the App Store